#timestamp,LO_Frequency,Hit 
1503129615.6,286046998.0,N
1503129635.5,286046999.5,N
1503129655.3,286047000.7,N
1503129675.1,286047000.8,N
1503129695.9,286046998.4,N
1503129715.7,286046998.6,N
1503129735.5,286047001.1,N
1503129755.3,286047000.8,N
1503129775.2,286046998.2,N
1503129795.0,286046998.4,N
1503129795.9,286046998.4,N
1503129815.7,286046998.4,N
1503129835.6,286047000.3,N
1503129855.4,286046999.7,N
1503129875.2,286047000.5,N
1503129895.1,286046999.7,N
1503129896.0,286046999.7,N
1503129915.8,286047000.6,N
1503129935.7,286047002.1,N
1503129955.5,286047002.5,N
1503129975.4,286047002.4,N
1503129995.2,286047002.2,N
1503130015.2,286047000.2,N
1503130035.9,286047000.7,N
1503130055.7,286047001.9,N
1503130075.5,286047001.5,N
1503130095.4,286047003.8,N
1503130115.2,286047001.5,N
1503130135.0,286047001.6,N
1503130135.9,286047001.6,N
1503130155.8,286047002.5,N
1503130175.6,286047002.1,N
1503130195.4,286047002.1,N
1503130215.3,286047002.3,N
1503130235.1,286047001.3,N
1503130236.0,286047001.3,N
1503130255.8,286047003.9,N
1503130275.7,286047003.4,N
1503130295.5,286047002.4,N
1503130315.3,286047002.5,N
1503130335.2,286046998.5,N
1503130355.9,286046998.9,N
1503130375.7,286046998.5,N
1503130395.6,286046999.9,N
1503130415.4,286046999.7,N
1503130435.2,286047002.2,N
1503130455.0,286047002.7,N
1503130455.9,286047002.7,N
1503130475.8,286046999.0,N
1503130495.6,286046997.7,N
1503130515.4,286046997.3,N
1503130535.3,286046998.2,N
1503130555.1,286046999.0,N
1503130575.8,286046998.4,N
1503130595.7,286046998.4,N
1503130615.5,286046999.1,N
1503130635.3,286046999.2,N
1503130655.2,286047000.1,N
1503130675.9,286047003.9,N
1503130695.7,286047004.1,N
1503130715.6,286047003.8,N
1503130735.4,286047003.2,N
1503130755.2,286047004.1,N
1503130775.0,286047004.0,N
1503130776.0,286047004.0,N
1503130795.8,286047002.8,N
1503130815.6,286047004.2,N
1503130835.4,286047003.9,N
1503130855.3,286047002.5,N
1503130875.1,286047002.7,N
1503130895.8,286047000.2,N
1503130915.7,286047002.5,N
1503130935.5,286047002.5,N
1503130955.3,286047001.9,N
1503130975.2,286047002.2,N
1503130995.9,286047001.7,N
1503131015.7,286047003.6,N
1503131035.6,286047004.6,N
1503131055.4,286047003.6,N
1503131075.2,286047002.4,N
1503131095.1,286047001.0,N
1503131096.0,286047001.0,N
1503131115.8,286046998.2,N
1503131135.6,286047000.9,N
1503131155.4,286047001.7,N
1503131175.3,286047001.6,N
1503131195.1,286047000.0,N
1503131215.8,286047000.1,N
1503131235.7,286047000.6,N
1503131255.5,286047000.4,N
1503131275.3,286047001.2,N
1503131295.2,286046998.1,N
1503131315.9,286046998.4,N
1503131335.7,286046998.1,N
1503131355.6,286046998.6,N
1503131375.4,286046999.9,N
1503131395.2,286047000.7,N
1503131415.1,286047000.7,N
1503131416.0,286047000.7,N
1503131435.8,286046998.3,N
1503131455.6,286047001.2,N
1503131475.5,286047002.1,N
1503131495.3,286047002.2,N
1503131515.1,286047004.3,N
1503131535.8,286047003.8,N
1503131555.7,286047001.6,N
1503131575.5,286047005.6,P
1503131595.4,286047005.4,N
1503131615.2,286047004.2,N
1503131635.0,286047005.6,P
1503131635.9,286047005.6,P
1503131655.8,286047000.6,N
1503131675.6,286046998.2,N
1503131695.4,286047001.2,N
1503131715.3,286047000.2,N
1503131735.1,286046998.7,N
1503131736.0,286046998.7,N
1503131755.8,286046998.7,N
1503131775.6,286046997.2,N
1503131795.5,286046994.9,N
1503131815.3,286046997.7,N
1503131835.1,286046998.4,N
1503131855.9,286046996.7,N
1503131875.7,286046994.9,N
1503131895.5,286046995.4,N
1503131915.4,286046997.1,N
1503131935.2,286046997.7,N
1503131955.0,286046997.1,N
1503131955.9,286046997.1,N
1503131975.8,286046995.4,N
1503131995.6,286046994.9,N
1503132015.4,286046995.0,N
1503132035.3,286046999.4,N
1503132055.1,286046999.5,N
1503132056.0,286046999.5,N
1503132075.8,286046997.9,N
1503132095.6,286046996.7,N
1503132115.5,286046996.6,N
1503132135.3,286046998.1,N
1503132155.1,286046996.5,N
1503132175.9,286046999.5,N
1503132195.7,286046996.5,N
1503132215.5,286046998.7,N
1503132235.4,286046996.6,N
1503132255.2,286047000.8,N
1503132275.0,286046998.5,N
1503132275.9,286046998.5,N
1503132295.8,286046999.4,N
1503132315.6,286047001.1,N
1503132335.4,286046999.7,N
1503132355.3,286047001.0,N
1503132375.1,286046998.7,N
1503132376.0,286046998.7,N
1503132395.8,286046998.5,N
1503132415.6,286046998.2,N
1503132435.5,286047001.1,N
1503132455.3,286046998.2,N
1503132475.1,286047001.1,N
1503132495.9,286047000.2,N
1503132515.7,286047001.2,N
1503132535.0,286046999.4,N
1503132535.9,286046999.4,N
1503132555.7,286046997.6,N
1503132575.6,286046996.1,N
1503132595.4,286046997.6,N
1503132615.2,286046996.5,N
1503132635.1,286046996.8,N
1503132636.0,286046996.8,N
1503132655.8,286046998.4,N
1503132675.6,286047000.6,N
1503132695.5,286046998.1,N
1503132715.3,286047000.8,N
1503132735.1,286046997.2,N
1503132755.9,286046999.5,N
1503132775.7,286046999.0,N
1503132795.6,286046998.7,N
1503132815.4,286046997.8,N
1503132835.2,286046997.1,N
1503132855.0,286046996.5,N
1503132856.0,286046996.5,N
1503132875.8,286046996.8,N
1503132895.6,286046999.6,N
1503132915.4,286046996.9,N
1503132935.3,286046999.4,N
1503132955.1,286046999.1,N
1503132975.8,286046998.6,N
1503132995.7,286047000.8,N
1503133015.5,286047000.7,N
1503133035.3,286046999.2,N
1503133055.2,286046999.2,N
1503133075.9,286046999.1,N
1503133095.7,286046998.6,N
1503133115.6,286046996.5,N
1503133135.4,286046997.4,N
1503133155.2,286046997.5,N
1503133175.1,286046997.2,N
1503133176.0,286046997.2,N
1503133195.8,286046994.9,P
